FW7514 Weather Reports


Display with metric or nautical units.
time (UTC)temp
F
wind
direction
speed
MPH
gust
MPH
rain 1hr
in
rain 24hr
in
rain mn
in
humidity
%
barometer
mb
20260507025544 67 254 4.0 8.0 0.00 0.00 0.00 70 1018.4
20260507025045 67 226 2.0 10.0 0.00 0.00 0.00 69 1018.3
20260507024555 68 263 4.0 10.0 0.00 0.00 0.00 68 1018.4
20260507024049 68 252 4.0 10.0 0.00 0.00 0.00 67 1018.1
20260507023544 68 268 4.0 9.0 0.00 0.00 0.00 67 1018.0
20260507023104 69 234 5.0 9.0 0.00 0.00 0.00 66 1017.9
20260507022544 70 270 4.0 9.0 0.00 0.00 0.00 65 1017.8
20260507022049 70 243 4.0 8.0 0.00 0.00 0.00 65 1017.7
20260507021551 71 256 3.0 11.0 0.00 0.00 0.00 64 1017.8
20260507021048 71 240 4.0 11.0 0.00 0.00 0.00 64 1017.7
20260507020545 72 253 3.0 8.0 0.00 0.00 0.00 63 1017.7
20260507020056 72 244 3.0 9.0 0.00 0.00 0.00 63 1017.7
20260507015548 72 241 4.0 9.0 0.00 0.00 0.00 63 1017.7
20260507015045 72 245 3.0 10.0 0.00 0.00 0.00 63 1017.7
20260507014602 72 239 5.0 10.0 0.00 0.00 0.00 62 1017.7
20260507014045 72 261 5.0 10.0 0.00 0.00 0.00 62 1017.7
20260507013545 73 233 4.0 9.0 0.00 0.00 0.00 62 1017.6
20260507013056 73 293 5.0 9.0 0.00 0.00 0.00 61 1017.7
20260507012544 74 256 4.0 9.0 0.00 0.00 0.00 62 1017.8
20260507012045 74 243 4.0 10.0 0.00 0.00 0.00 60 1017.8
20260507011555 74 252 4.0 10.0 0.00 0.00 0.00 61 1017.7
20260507011044 74 260 5.0 10.0 0.00 0.00 0.00 60 1017.7
20260507010544 74 226 5.0 11.0 0.00 0.00 0.00 61 1017.6
20260507010052 74 253 4.0 11.0 0.00 0.00 0.00 60 1017.5
20260507005545 74 252 4.0 9.0 0.00 0.00 0.00 60 1017.6
20260507005048 75 324 2.0 9.0 0.00 0.00 0.00 61 1017.6
20260507004553 74 262 5.0 9.0 0.00 0.00 0.00 59 1017.7
20260507004048 75 233 4.0 9.0 0.00 0.00 0.00 60 1017.7
20260507003546 74 261 4.0 9.0 0.00 0.00 0.00 59 1017.7
20260507003054 74 271 4.0 9.0 0.00 0.00 0.00 60 1017.6
20260507002547 75 236 6.0 9.0 0.00 0.00 0.00 58 1017.6
20260507002046 75 307 4.0 7.0 0.00 0.00 0.00 57 1017.6
20260507001605 75 360 4.0 7.0 0.00 0.00 0.00 57 1017.7
20260507001047 75 248 3.0 8.0 0.00 0.00 0.00 57 1017.7
20260507000547 75 280 3.0 8.0 0.00 0.00 0.00 59 1017.7
20260507000054 75 266 3.0 7.0 0.00 0.00 0.00 58 1017.8
20260506235545 75 293 3.0 8.0 0.00 0.00 0.00 58 1017.8
20260506235050 75 288 4.0 9.0 0.00 0.00 0.00 58 1017.8
20260506234557 75 273 4.0 9.0 0.00 0.00 0.00 58 1017.9
20260506234047 75 253 3.0 9.0 0.00 0.00 0.00 58 1017.8
20260506233547 75 233 4.0 9.0 0.00 0.00 0.00 57 1017.9
20260506233108 76 276 3.0 11.0 0.00 0.00 0.00 58 1017.9
20260506232546 75 226 2.0 11.0 0.00 0.00 0.00 57 1017.9
20260506232048 76 255 3.0 11.0 0.00 0.00 0.00 56 1017.9
20260506231555 75 255 3.0 8.0 0.00 0.00 0.00 56 1018.0
20260506231045 76 236 3.0 8.0 0.00 0.00 0.00 57 1018.1
20260506230547 75 312 2.0 6.0 0.00 0.00 0.00 59 1018.0
20260506230057 75 307 2.0 9.0 0.00 0.00 0.00 60 1018.2
20260506225545 75 338 4.0 9.0 0.00 0.00 0.00 57 1018.3
20260506225045 75 307 2.0 8.0 0.00 0.00 0.00 56 1018.3
20260506224556 74 250 4.0 9.0 0.00 0.00 0.00 57 1018.3
20260506224044 74 287 3.0 9.0 0.00 0.00 0.00 58 1018.4
20260506223552 74 309 3.0 8.0 0.00 0.00 0.00 57 1018.6
20260506223055 74 44 3.0 8.0 0.00 0.00 0.00 58 1018.6
20260506222545 75 245 3.0 7.0 0.00 0.00 0.00 57 1018.6
20260506222047 74 269 3.0 7.0 0.00 0.00 0.00 58 1018.6
20260506221559 75 312 1.0 8.0 0.00 0.00 0.00 57 1018.6
20260506221044 74 84 3.0 9.0 0.00 0.00 0.00 57 1018.8
20260506220545 74 254 3.0 9.0 0.00 0.00 0.00 58 1018.8
20260506220052 74 268 3.0 7.0 0.00 0.00 0.00 60 1018.9
20260506215549 74 302 2.0 8.0 0.00 0.00 0.00 57 1019.0
20260506215045 74 271 2.0 8.0 0.00 0.00 0.00 56 1019.1
20260506214554 74 285 2.0 8.0 0.00 0.00 0.00 58 1018.9
20260506214045 74 258 2.0 8.0 0.00 0.00 0.00 57 1018.9
20260506213545 74 329 2.0 9.0 0.00 0.00 0.00 56 1019.1
20260506213110 74 328 2.0 9.0 0.00 0.00 0.00 56 1019.2
20260506212551 74 293 2.0 7.0 0.00 0.00 0.00 55 1019.4
20260506212048 74 45 3.0 7.0 0.00 0.00 0.00 55 1019.2
20260506211551 74 62 2.0 9.0 0.00 0.00 0.00 53 1019.3
20260506211045 74 311 2.0 9.0 0.00 0.00 0.00 54 1019.3
20260506210544 74 245 3.0 9.0 0.00 0.00 0.00 53 1019.4
20260506210055 74 25 2.0 7.0 0.00 0.00 0.00 54 1019.3
20260506205544 74 323 3.0 7.0 0.00 0.00 0.00 54 1019.3
20260506205044 73 105 1.0 6.0 0.00 0.00 0.00 55 1019.3
20260506204553 73 127 2.0 7.0 0.00 0.00 0.00 56 1019.4
20260506204044 73 44 3.0 7.0 0.00 0.00 0.00 56 1019.4
20260506203545 73 293 2.0 6.0 0.00 0.00 0.00 56 1019.6
20260506203050 72 319 1.0 6.0 0.00 0.00 0.00 57 1019.5
20260506202545 72 263 3.0 6.0 0.00 0.00 0.00 57 1019.6
20260506202048 71 212 2.0 6.0 0.00 0.00 0.00 57 1019.7
20260506201551 71 20 3.0 6.0 0.00 0.00 0.00 59 1019.9
20260506201044 71 288 2.0 5.0 0.00 0.00 0.00 62 1019.9
20260506200545 70 330 1.0 7.0 0.00 0.00 0.00 62 1020.0
20260506200048 70 51 3.0 7.0 0.00 0.00 0.00 62 1020.2
20260506195545 70 49 2.0 9.0 0.00 0.00 0.00 63 1020.2
20260506195048 70 292 2.0 9.0 0.00 0.00 0.00 63 1020.0
20260506194552 69 288 4.0 9.0 0.00 0.00 0.00 63 1020.3
20260506194048 70 309 4.0 7.0 0.00 0.00 0.00 63 1020.2
20260506193544 70 41 2.0 7.0 0.00 0.00 0.00 63 1020.2
20260506193050 71 324 3.0 7.0 0.00 0.00 0.00 62 1020.5
20260506192544 71 31 3.0 7.0 0.00 0.00 0.00 62 1020.4
20260506192045 71 264 1.0 6.0 0.00 0.00 0.00 62 1020.3
20260506191552 71 212 3.0 6.0 0.00 0.00 0.00 60 1020.5
20260506191046 70 205 1.0 5.0 0.00 0.00 0.00 63 1020.4
20260506190544 69 118 2.0 7.0 0.00 0.00 0.00 63 1020.4
20260506190051 69 276 2.0 7.0 0.00 0.00 0.00 64 1020.3
20260506185545 70 302 4.0 7.0 0.00 0.00 0.00 64 1020.3
20260506185045 70 278 1.0 5.0 0.00 0.00 0.00 64 1020.3
20260506184549 70 57 1.0 5.0 0.00 0.00 0.00 63 1020.4
20260506184045 70 65 3.0 5.0 0.00 0.00 0.00 64 1020.5
20260506183549 69 28 1.0 6.0 0.00 0.00 0.00 65 1020.5
20260506183051 68 206 3.0 7.0 0.00 0.00 0.00 64 1020.6
20260506182544 69 241 1.0 7.0 0.00 0.00 0.00 65 1020.6
20260506182120 68 291 2.0 7.0 0.00 0.00 0.00 64 1020.7
20260506181551 68 324 1.0 7.0 0.00 0.00 0.00 66 1020.5
20260506181045 67 291 3.0 7.0 0.00 0.00 0.00 66 1020.6
20260506180548 67 198 1.0 6.0 0.00 0.00 0.00 66 1020.6
20260506175545 68 229 1.0 4.0 0.00 0.00 0.00 66 1020.5
20260506175044 68 130 2.0 4.0 0.00 0.00 0.00 66 1020.5
20260506174553 66 129 1.0 5.0 0.00 0.00 0.00 68 1020.6
20260506174044 66 231 3.0 5.0 0.00 0.00 0.00 68 1020.7
20260506173545 66 228 3.0 5.0 0.00 0.00 0.00 68 1020.7
20260506173057 67 224 1.0 4.0 0.00 0.00 0.00 67 1020.6
20260506172546 67 136 2.0 4.0 0.00 0.00 0.00 67 1020.8
20260506172048 67 114 1.0 5.0 0.00 0.00 0.00 67 1020.8
20260506171558 66 191 2.0 5.0 0.00 0.00 0.00 68 1020.8
20260506171047 66 153 1.0 4.0 0.00 0.00 0.00 67 1020.8
20260506170548 65 112 2.0 4.0 0.00 0.00 0.00 69 1020.9
20260506170103 64 282 2.0 4.0 0.00 0.00 0.00 72 1020.8
20260506165545 63 167 2.0 5.0 0.00 0.00 0.00 70 1020.8
20260506165046 63 136 1.0 5.0 0.00 0.00 0.00 73 1020.8
20260506164553 63 0 2.0 6.0 0.00 0.00 0.00 70 1020.7
20260506164049 63 105 1.0 6.0 0.00 0.00 0.00 74 1020.8
20260506163547 62 276 2.0 6.0 0.00 0.00 0.00 72 1020.7
20260506163114 62 110 2.0 5.0 0.00 0.00 0.00 74 1020.8
20260506162544 61 210 1.0 5.0 0.00 0.00 0.00 74 1020.8
20260506162046 61 278 2.0 5.0 0.00 0.00 0.00 75 1020.7
20260506161551 61 259 2.0 5.0 0.00 0.00 0.00 75 1020.8
20260506161044 60 272 2.0 5.0 0.00 0.00 0.00 77 1020.8
20260506160544 60 243 1.0 5.0 0.00 0.00 0.00 77 1020.9
20260506160049 60 231 2.0 6.0 0.00 0.00 0.00 77 1020.9
20260506155552 59 240 2.0 6.0 0.00 0.00 0.00 77 1020.9
20260506155045 59 228 2.0 6.0 0.00 0.00 0.00 77 1020.8
20260506154608 60 233 1.0 5.0 0.00 0.00 0.00 76 1020.9
20260506154046 59 117 2.0 5.0 0.00 0.00 0.00 77 1020.9
20260506153544 59 158 2.0 4.0 0.00 0.00 0.00 77 1020.9
20260506153058 59 233 2.0 4.0 0.00 0.00 0.00 77 1021.0
20260506152545 59 236 1.0 7.0 0.00 0.00 0.00 76 1021.0
20260506152048 59 155 2.0 7.0 0.00 0.00 0.00 76 1020.9
20260506151555 60 192 2.0 6.0 0.00 0.00 0.00 76 1020.9
20260506151045 59 174 2.0 6.0 0.00 0.00 0.00 78 1020.9
20260506150545 59 129 1.0 6.0 0.00 0.00 0.00 78 1020.9
20260506150053 58 233 1.0 5.0 0.00 0.00 0.00 79 1020.9
20260506145545 58 146 2.0 5.0 0.00 0.00 0.00 79 1020.8
20260506145044 58 155 2.0 4.0 0.00 0.00 0.00 80 1020.9
20260506144553 57 136 1.0 4.0 0.00 0.00 0.00 82 1020.8
20260506144044 56 176 1.0 3.0 0.00 0.00 0.00 83 1020.9
20260506143545 56 134 1.0 3.0 0.00 0.00 0.00 83 1020.8
20260506143105 56 137 1.0 3.0 0.00 0.00 0.00 83 1020.7
20260506142546 55 128 0.0 3.0 0.00 0.00 0.00 84 1020.7
20260506142048 55 152 1.0 3.0 0.00 0.00 0.00 84 1020.6
20260506141552 55 149 0.0 3.0 0.00 0.00 0.00 85 1020.6
20260506141048 55 168 1.0 3.0 0.00 0.00 0.00 85 1020.6
20260506140548 55 156 1.0 2.0 0.00 0.00 0.00 85 1020.4
20260506140054 54 153 0.0 2.0 0.00 0.00 0.00 85 1020.3
20260506135547 54 147 0.0 2.0 0.00 0.00 0.00 86 1020.3
20260506135047 54 143 1.0 2.0 0.00 0.00 0.00 86 1020.3
20260506134552 54 0 0.0 0.0 0.00 0.00 0.00 86 1020.2
20260506134044 54 0 0.0 0.0 0.00 0.00 0.00 86 1020.2
20260506133547 54 0 0.0 0.0 0.00 0.00 0.00 86 1020.2
20260506133055 54 0 0.0 0.0 0.00 0.00 0.00 86 1020.3
20260506132547 54 0 0.0 0.0 0.00 0.00 0.00 86 1020.2
20260506132047 54 0 0.0 0.0 0.00 0.00 0.00 86 1020.2
20260506131555 54 0 0.0 0.0 0.00 0.00 0.00 86 1020.1
20260506131047 54 0 0.0 0.0 0.00 0.00 0.00 85 1020.0
20260506130548 54 0 0.0 0.0 0.00 0.00 0.00 85 1020.0
20260506130052 54 0 0.0 0.0 0.00 0.00 0.00 85 1020.0
20260506125549 54 0 0.0 0.0 0.00 0.00 0.00 85 1020.1
20260506125050 54 0 0.0 0.0 0.00 0.00 0.00 85 1020.0
20260506124548 54 0 0.0 0.0 0.00 0.00 0.00 84 1019.8
20260506124047 55 0 0.0 0.0 0.00 0.00 0.00 84 1019.9
20260506123545 55 0 0.0 1.0 0.00 0.00 0.00 84 1019.9
20260506123051 55 0 0.0 1.0 0.00 0.00 0.00 84 1020.0
20260506122547 55 0 0.0 2.0 0.00 0.00 0.00 84 1019.9
20260506122046 55 148 0.0 2.0 0.00 0.00 0.00 84 1020.0
20260506121552 55 195 1.0 3.0 0.00 0.00 0.00 84 1019.9
20260506121048 55 136 1.0 3.0 0.00 0.00 0.00 84 1019.8
20260506120548 55 137 0.0 2.0 0.00 0.00 0.00 84 1020.0
20260506120058 55 155 0.0 2.0 0.00 0.00 0.00 84 1019.9
20260506115548 55 150 0.0 2.0 0.00 0.00 0.00 84 1019.8
20260506115047 55 172 0.0 2.0 0.00 0.00 0.00 84 1019.8
20260506114604 55 135 0.0 2.0 0.00 0.00 0.00 84 1019.8
20260506114051 55 153 1.0 2.0 0.00 0.00 0.00 84 1019.7
20260506113549 55 162 0.0 1.0 0.00 0.00 0.00 84 1019.7
20260506113054 55 233 0.0 1.0 0.00 0.00 0.00 84 1019.8
20260506112547 55 233 0.0 1.0 0.00 0.00 0.00 85 1019.8
20260506112048 55 233 0.0 1.0 0.00 0.00 0.00 85 1019.6
20260506111553 55 193 0.0 1.0 0.00 0.00 0.00 85 1019.6
20260506111045 55 0 0.0 1.0 0.00 0.00 0.00 85 1019.7
20260506110545 54 141 0.0 1.0 0.00 0.00 0.00 85 1019.5
20260506110059 54 0 0.0 1.0 0.00 0.00 0.00 85 1019.6
20260506105545 54 149 0.0 1.0 0.00 0.00 0.00 85 1019.4
20260506105046 54 150 0.0 1.0 0.00 0.00 0.00 85 1019.5
20260506104555 54 158 0.0 2.0 0.00 0.00 0.00 85 1019.4
20260506104044 54 181 1.0 2.0 0.00 0.00 0.00 85 1019.5
20260506103547 54 146 0.0 2.0 0.00 0.00 0.00 85 1019.5
20260506103051 54 200 0.0 2.0 0.00 0.00 0.00 85 1019.4
20260506102545 54 172 1.0 3.0 0.00 0.00 0.00 85 1019.3
20260506102045 54 165 0.0 3.0 0.00 0.00 0.00 85 1019.4
20260506101604 54 158 1.0 3.0 0.00 0.00 0.00 85 1019.4
20260506101047 54 165 0.0 3.0 0.00 0.00 0.00 85 1019.4
20260506100545 54 153 1.0 3.0 0.00 0.00 0.00 85 1019.3
20260506100057 54 143 1.0 3.0 0.00 0.00 0.00 85 1019.2
20260506095547 54 163 1.0 3.0 0.00 0.00 0.00 85 1019.3
20260506095045 54 192 1.0 2.0 0.00 0.00 0.00 85 1019.3
20260506094621 54 188 0.0 2.0 0.00 0.00 0.00 85 1019.3
20260506094044 54 155 0.0 2.0 0.00 0.00 0.00 86 1019.1
20260506093546 54 207 0.0 3.0 0.00 0.00 0.00 86 1019.2
20260506093056 54 148 1.0 3.0 0.00 0.00 0.00 86 1019.1
20260506092545 54 148 0.0 2.0 0.00 0.00 0.00 86 1019.2
20260506092045 54 194 0.0 2.0 0.00 0.00 0.00 86 1019.2
20260506091555 54 233 1.0 2.0 0.00 0.00 0.00 86 1019.2
20260506091045 54 233 0.0 2.0 0.00 0.00 0.00 86 1019.2
20260506090544 54 204 0.0 2.0 0.00 0.00 0.00 86 1019.3
20260506090059 54 143 1.0 2.0 0.00 0.00 0.00 86 1019.3
20260506085545 54 150 0.0 2.0 0.00 0.05 0.00 86 1019.2
20260506085048 54 176 0.0 2.0 0.00 0.05 0.00 86 1019.3
20260506084603 54 201 1.0 2.0 0.00 0.05 0.00 85 1019.1
20260506084048 54 170 0.0 2.0 0.00 0.05 0.00 85 1019.4
20260506083546 54 253 0.0 2.0 0.00 0.05 0.00 85 1019.3
20260506083104 54 241 1.0 3.0 0.00 0.05 0.00 86 1019.2
20260506082548 54 139 1.0 3.0 0.00 0.05 0.00 86 1019.1
20260506082045 54 241 1.0 3.0 0.00 0.05 0.00 86 1019.2
20260506081559 54 0 1.0 3.0 0.00 0.05 0.00 86 1019.2
20260506081046 53 146 1.0 4.0 0.00 0.05 0.00 86 1019.1
20260506080548 53 122 1.0 4.0 0.00 0.05 0.00 86 1019.2
20260506073103 53 159 1.0 4.0 0.00 0.10 0.00 86 1018.9
20260506072549 53 143 2.0 5.0 0.00 0.10 0.00 86 1018.9
20260506072046 53 154 2.0 5.0 0.00 0.10 0.00 85 1018.9
20260506071557 53 150 1.0 4.0 0.00 0.10 0.00 85 1018.8
20260506071045 54 155 1.0 4.0 0.00 0.10 0.00 85 1018.7
20260506070545 54 139 1.0 4.0 0.00 0.10 0.00 85 1018.7
20260506070104 54 150 2.0 5.0 0.00 0.10 0.00 85 1018.7
20260506062045 54 212 1.0 6.0 0.00 0.15 0.10 84 1018.4
20260506061558 54 174 2.0 5.0 0.00 0.15 0.10 84 1018.3
20260506061045 54 132 1.0 6.0 0.00 0.15 0.10 84 1018.4
20260506060545 54 181 2.0 6.0 0.00 0.15 0.10 83 1018.2
20260506051047 56 167 3.0 8.0 0.00 0.18 0.10 80 1017.9
20260506050547 56 225 2.0 8.0 0.00 0.18 0.10 80 1017.8
20260506045049 57 142 2.0 5.0 0.00 0.23 0.10 79 1017.8
20260506044553 57 242 2.0 5.0 0.00 0.23 0.10 79 1017.7
20260506044047 57 231 1.0 7.0 0.00 0.23 0.10 79 1017.7
20260506043548 57 244 1.0 7.0 0.00 0.23 0.10 79 1017.6
20260506043055 57 248 3.0 8.0 0.00 0.23 0.10 78 1017.6
20260506042548 57 155 2.0 8.0 0.00 0.23 0.10 78 1017.5
20260506042046 57 234 3.0 7.0 0.00 0.23 0.10 78 1017.3
20260506041554 57 226 3.0 7.0 0.00 0.23 0.10 78 1017.3
20260506041048 57 223 2.0 7.0 0.00 0.23 0.10 78 1017.3
20260506040549 58 229 2.0 7.0 0.00 0.23 0.10 78 1017.2
20260506040100 58 241 2.0 7.0 0.00 0.23 0.10 78 1017.2
20260506035547 58 216 2.0 7.0 0.00 0.23 0.10 79 1017.1
20260506035047 58 282 2.0 7.0 0.00 0.23 0.10 78 1017.1
20260506034605 58 255 2.0 7.0 0.00 0.23 0.10 78 1017.1
20260506034047 58 250 3.0 9.0 0.00 0.23 0.10 78 1017.0
20260506033547 58 237 2.0 9.0 0.00 0.23 0.10 78 1016.9
20260506033052 58 264 3.0 6.0 0.00 0.23 0.10 78 1016.8
20260506032549 58 233 1.0 5.0 0.00 0.23 0.10 77 1016.7
20260506032048 58 234 2.0 6.0 0.00 0.23 0.10 77 1016.6
20260506031600 58 142 2.0 6.0 0.00 0.23 0.10 77 1016.5
20260506031050 59 150 2.0 5.0 0.00 0.23 0.10 76 1016.5
20260506030549 59 210 2.0 6.0 0.00 0.23 0.10 76 1016.4
20260506030048 59 134 3.0 6.0 0.00 0.23 0.10 76 1016.4